Regional Weather Roundup
Issued by NWS Charleston, SC

Current Version | Previous Version | Text Only | Print | Product List | Glossary Off
Versions: 1 2 3 4 5 6 7 8 9 10 11 12 13 14 15 16 17 18 19 20 21 22 23 24 25 26 27 28 29 30 31 32 33 34 35 36 37 38 39 40 41 42 43 44 45 46 47 48 49 50
410 ASUS42 KCHS 060427 RWRCHS REGIONAL WEATHER ROUNDUP NATIONAL WEATHER SERVICE CHARLESTON SC 1100 PM EST MON DEC 05 2016 NOTE: "FAIR" INDICATES FEW OR NO CLOUDS BELOW 12,000 FEET WITH NO SIGNIFICANT WEATHER AND/OR OBSTRUCTIONS TO VISIBILITY. NOT ALL STATIONS ARE QUALITY CONTROLLED. USE DATA WITH CAUTION... ESPECIALLY DEWPOINT OBSERVATIONS. SCZ027-030-031-034>040-042>050-060500- ...SOUTHEAST SOUTH CAROLINA... CITY SKY/WX TMP DP RH WIND PRES REMARKS N CHARLESTON RAIN 57 54 89 NE9 29.95F FOG WATERFRONT PRK N/A 57 57 100 NE7 29.96F MOUNT PLEASANT HVY RAIN 57 55 94 CALM 29.96F JOHNS ISLAND RAIN 59 57 94 NE9G16 29.93F PINOPOLIS N/A 55 55 100 NE9 29.91F MONCKS CORNER RAIN 54 52 94 NE5 29.98F SUMMERVILLE RAIN N/A N/A N/A N7 29.97F BEAUFORT MCAS RAIN 58 57 97 NE8 29.93F BEAUFORT ARPT RAIN 57 55 94 NE12G17 29.92F HILTON HEAD IS HVY RAIN 59 59 100 N12 29.92F WALTERBORO HVY RAIN 55 N/A N/A NE14 29.93F ALLENDALE RAIN 55 54 94 VRB7 29.91F ...SOUTHERN MIDLANDS AND PEE DEE... CITY SKY/WX TMP DP RH WIND PRES REMARKS GEORGETOWN NOT AVBL KINGSTREE RAIN 52 50 93 CALM 30.01S ORANGEBURG RAIN 53 52 96 NE9 29.97F BARNWELL NOT AVBL AIKEN RAIN 52 50 93 E12 29.97F MANNING HVY RAIN 52 52 100 NE7 30.00S COLUMBIA LGT RAIN 55 52 89 E8 30.00F SUMTER CLOUDY 54 52 94 E7 29.99F FLORENCE RAIN 53 52 96 N3 30.04R FOG MYRTLE BEACH CLOUDY 55 52 88 NE5 30.03R N MYRTLE BEACH RAIN 54 54 100 N7 30.02R FOG $$ GAZ063-065-086>088-099>101-113>116-118-119-134>141-150-060500- ...SOUTHEAST GEORGIA... CITY SKY/WX TMP DP RH WIND PRES REMARKS SAVANNAH ARPT HVY RAIN 59 56 89 E10 29.91F FOG HUNTER AAF LGT RAIN 59 59 100 NE9 29.87F FORT STEWART LGT RAIN 59 57 94 CALM 29.87S STATESBORO TSTM 57 56 99 N3 29.95R SYLVANIA RAIN N/A N/A N/A E8 29.92R CLAXTON TSTM N/A N/A N/A NW13 29.91R ...CSRA...CENTRAL AND FAR SOUTHEAST GEORGIA... CITY SKY/WX TMP DP RH WIND PRES REMARKS THOMSON CLOUDY 55 55 100 E5 29.96F AUGUSTA-BUSH LGT RAIN 56 52 86 E8 29.94F AUGUSTA-DANIEL LGT RAIN 55 51 86 E9G20 29.93F SWAINSBORO RAIN 55 54 94 E10 29.93S VIDALIA CLOUDY 55 55 100 NE7 29.91R EASTMAN HVY RAIN 58 58 100 NE8 29.89F HAZLEHURST HVY RAIN 58 58 100 E9 29.87F ALMA LGT RAIN 63 63 100 CALM 29.86R FOG WAYCROSS RAIN 73 73 100 SE6 29.84F JESUP RAIN 63 63 100 SE8 29.90R BAXLEY CLOUDY 61 61 100 NE14 29.87F BRUNSWICK TSTM 64 64 100 N6 29.90R VSB 1 SAINT SIMONS TSTM 65 64 97 NW12 29.88S FOG $$ SCZ027-028-034-036>038-045-046-048>050-GAZ119-141-060500- ...LAKE AND SUPPLEMENTAL COASTAL OBSERVATIONS... STATION/POSITION TIME TEMP WIND PRES WAVE SWELL AIR SEA DIR/SP/G HT/PER HT/PER/DIR (UTC) (F) (DEG/KT/KT) (MB) (FT/S) (FT/S/D) WINYAH BAY 0345 56 40/ 8 1016.0S LAKE MURRAY 0350 54 80/ 9/ 12 1015.6F ACE BASIN NERRS 0345 57 20/ 5 1013.0F FORT PULASKI 0400 59 62 70/ 18/ 24 1012.3 SAPELO ISLAND 0400 63 40/ 8 1011.0 $$ ANZ835-935-AMZ111-154-330-350-352-354-370-450-454-472-060500- ...C-MAN AND BUOY OBSERVATIONS... STATION/POSITION TIME TEMP WIND PRES WAVE SWELL AIR SEA DIR/SP/G HT/PER HT/PER/DIR (UTC) (F) (DEG/KT/KT) (MB) (FT/S) (FT/S/D) BUOY 41004 0350 71 74 80/ 12/ 14 1013.3R 4/ 5 2/160/ 6 BUOY 41008 0350 67 65 40/ 14/ 17 1010.6F 3/ 5 2/130/ 8 FOLLY BEACH CMAN 0400 58 40/ 17/ 21 1014.6F CAPERS NEARSHORE NOT AVBL FRIPP NEARSHORE 0408 60 62 60/ 21/ 25 1012.6F STATION/POSITION TIME TEMP WIND PRES WAVE SWELL AIR SEA DIR/SP/G HT/PER HT/PER/DIR (UTC) (F) (DEG/KT/KT) (MB) (FT/S) (FT/S/D) 5E ST. MARYS GA 0400 66 N/A 3/ 6 FRYING PAN BUOY 0410 66 74 40/ 17/ 23 1015.0 BUOY 41025 0350 59 77 10/ 14/ 16 1017.8R 5/ 9 3/ 90/ 9 CAPE LOOKOUT NC 0400 51 10/ 13/ 16 1017.5F BUOY 41002 0350 73 74 230/ 12/ 14 1015.1R 5/ 7 5/230/ 7 BUOY 41010 NOT AVBL ST AUGUSTINE FL 0400 74 68 200/ 4/ 5 1012.6R $$

USA.gov is the U.S. government's official web portal to all federal, state and local government web resources and services.